[[{"header":{"parameterUnit":"m.s-1","parameterCategory":2,"la1":30.2992,"la2":30.254,"lo1":-89.0895,"lo2":-89.0443,"dy":0.0025,"dx":0.0025,"nx":19,"ny":19,"refTime":"2026-03-27T09:00:00:Z","depth":"0","parameterNumber":2,"parameterNumberName":"U-component_of_CURRENTS"},"data":[0,0,0,0.0624,0.0623,0.0605,0.0605,0.0591,0.0591,0,0,0,0,0,0,0,0,0,0,0,0.0626,0.0626,0.0624,0.0623,0.0605,0.0605,0.0591,0.0591,0,0,0,0,0,0,0,0,0,0,0,0.0626,0.0626,0.0625,0.0623,0.0605,0.0605,0.0591,0.0602,0,0,0,0,0,0,0,0,0,0,0.0619,0.0615,0.0626,0.0625,0.0623,0.0605,0.0605,0.0603,0.0602,0.0603,0,0.0597,0,0.0596,0.0591,0.0591,0,0,0,0.0622,0.0616,0.0617,0.0625,0.0623,0.0605,0.0613,0.0602,0.0601,0.0601,0.0596,0.0596,0.0596,0.059,0.059,0.0542,0.0542,0,0,0.0623,0.0618,0.0617,0.0616,0.0614,0.0613,0.0612,0.0601,0.0595,0.0596,0.0596,0.0596,0.059,0.059,0.0543,0.0542,0,0,0,0.0627,0.0619,0.0619,0.0616,0.0614,0.0613,0.0612,0.0596,0.0597,0.0595,0.0595,0.059,0.059,0.0543,0.0543,0.0489,0,0,0,0.0627,0.0621,0.062,0.0616,0.0614,0.0602,0.0606,0.0598,0.0596,0.0596,0.059,0.059,0.0544,0.0543,0.0492,0.0474,0,0,0,0.0627,0.0621,0.0619,0.0616,0.061,0.0602,0.0603,0.0597,0.0597,0.0591,0.059,0.0544,0.0543,0.0494,0.0478,0.044,0,0,0,0.0624,0.0597,0.0619,0.0589,0.061,0.0577,0.0603,0.0579,0.0568,0.059,0.0544,0.0543,0.0495,0.048,0.0442,0.0391,0.0375,0,0,0.0585,0.0592,0.0575,0.0594,0.0555,0.058,0.0533,0.0536,0.0554,0.0549,0.0548,0.0491,0.0478,0.044,0.0327,0.0314,0,0,0,0.0559,0.0546,0.0537,0.0524,0.0516,0.0501,0.0505,0.0502,0.0491,0.0544,0.0484,0.0477,0.0455,0.0429,0.0418,0.0268,0.0538,0.0538,0.0538,0.0493,0.0499,0.0469,0.0471,0.0453,0.0442,0.0424,0.0424,0.0447,0.043,0.0428,0.0356,0.0326,0.0318,0.0164,0.0419,0.0418,0.0418,0.0418,0.0441,0.0438,0.0434,0.0412,0.0406,0.0377,0.0356,0.036,0.0329,0.0367,0.0347,0.0367,0.0302,0.0143,0.0415,0.0415,0.0416,0.0416,0.0416,0.0419,0.0423,0.0411,0.0394,0.0365,0.0351,0.0313,0.0297,0.0287,0.0262,0.024,0.024,0.0106,0.0252,0.0252,0.0251,0.0251,0.0251,0.0251,0.042,0.0408,0.0403,0.038,0.0373,0.0343,0.029,0.0253,0.0191,0.0177,0.0177,0.0049,0.0306,0.0319,0.0247,0.0247,0.0248,0.0248,0.0249,0.0426,0.0425,0.0417,0.0411,0.0384,0.0357,0.0293,0.018,0.0124,0.0079,-0.0113,0.0129,0.0143,0.0152,0.0161,0.0052,0.0052,0.0052,0.0052,0.0444,0.0438,0.0441,0.0435,0.041,0.0369,0.0276,0.0139,-0.0094,-0.0233,-0.0279,-0.0281,-0.0266,-0.0276,-0.0258,-0.0256,-0.0468,-0.0469,-0.047,0.0464,0.0461,0.047,0.0455,0.0431,0.0381,0.0287,0.005,-0.0331,-0.0505,-0.0486,-0.0464,-0.0476,-0.044,-0.0455,-0.0417,-0.0412,0,0]},{"header":{"parameterUnit":"m.s-1","parameterCategory":2,"la1":30.2992,"la2":30.254,"lo1":-89.0895,"lo2":-89.0443,"dy":0.0025,"dx":0.0025,"nx":19,"ny":19,"refTime":"2026-03-27T09:00:00:Z","depth":"0","parameterNumber":3,"parameterNumberName":"V-component_of_CURRENTS"},"data":[0,0,0,-0.134,-0.134,-0.1296,-0.1296,-0.116,-0.1159,0,0,0,0,0,0,0,0,0,0,0,-0.1353,-0.1353,-0.134,-0.134,-0.1296,-0.1296,-0.116,-0.1159,0,0,0,0,0,0,0,0,0,0,0,-0.1353,-0.1353,-0.1353,-0.134,-0.1296,-0.1296,-0.116,-0.1208,0,0,0,0,0,0,0,0,0,0,-0.1259,-0.1287,-0.1353,-0.1353,-0.134,-0.1296,-0.1296,-0.1211,-0.1205,-0.1164,0,-0.1171,0,-0.117,-0.115,-0.1149,0,0,0,-0.1319,-0.1292,-0.1287,-0.1353,-0.134,-0.1296,-0.131,-0.1209,-0.1202,-0.1156,-0.117,-0.1165,-0.1168,-0.1149,-0.1148,-0.1081,-0.1081,0,0,-0.1322,-0.1331,-0.1293,-0.1284,-0.1345,-0.1312,-0.1309,-0.1205,-0.1199,-0.1169,-0.1162,-0.1166,-0.1148,-0.1147,-0.108,-0.1081,0,0,0,-0.1343,-0.1333,-0.1331,-0.1289,-0.1292,-0.1311,-0.1308,-0.1203,-0.1206,-0.1161,-0.1164,-0.1147,-0.1146,-0.108,-0.108,-0.1143,0,0,0,-0.1343,-0.1347,-0.1333,-0.1336,-0.1295,-0.1258,-0.1308,-0.1212,-0.1201,-0.1165,-0.1147,-0.1144,-0.108,-0.108,-0.1141,-0.116,0,0,0,-0.1352,-0.1347,-0.135,-0.1337,-0.1328,-0.126,-0.1255,-0.121,-0.1203,-0.1149,-0.1144,-0.108,-0.108,-0.1139,-0.1156,-0.1145,0,0,0,-0.1352,-0.1363,-0.135,-0.1364,-0.1329,-0.1319,-0.1256,-0.1229,-0.119,-0.1147,-0.108,-0.108,-0.1138,-0.1154,-0.1144,-0.1121,-0.1126,0,0,-0.1367,-0.1365,-0.1375,-0.1363,-0.137,-0.1323,-0.1313,-0.1234,-0.1182,-0.1103,-0.1102,-0.1142,-0.1156,-0.1145,-0.1157,-0.1161,0,0,0,-0.1381,-0.1384,-0.1385,-0.1387,-0.1376,-0.1354,-0.1291,-0.1256,-0.1193,-0.1166,-0.1137,-0.1143,-0.1134,-0.1117,-0.1121,-0.0846,-0.1083,-0.1083,-0.1083,-0.1373,-0.1386,-0.1399,-0.1407,-0.1402,-0.1366,-0.1339,-0.1278,-0.1225,-0.1214,-0.1192,-0.1222,-0.1206,-0.1208,-0.0926,-0.1192,-0.1192,-0.1192,-0.1193,-0.1381,-0.1387,-0.1407,-0.1422,-0.1417,-0.1402,-0.136,-0.1329,-0.1273,-0.124,-0.1228,-0.1181,-0.1215,-0.0913,-0.1197,-0.1196,-0.1195,-0.1195,-0.1195,-0.136,-0.1369,-0.1387,-0.1415,-0.1424,-0.1416,-0.1408,-0.1373,-0.1317,-0.1315,-0.1253,-0.1251,-0.0984,-0.1298,-0.1298,-0.1298,-0.1298,-0.1298,-0.1298,-0.1327,-0.1352,-0.137,-0.1403,-0.1419,-0.1435,-0.1427,-0.1411,-0.1357,-0.1308,-0.1307,-0.0955,-0.1253,-0.1247,-0.1299,-0.1299,-0.1299,-0.1299,-0.1299,-0.1303,-0.1314,-0.1348,-0.1369,-0.1416,-0.1441,-0.1451,-0.1425,-0.1388,-0.1359,-0.0948,-0.1289,-0.1255,-0.1252,-0.1245,-0.1293,-0.1293,-0.1293,-0.1293,-0.1277,-0.1288,-0.1331,-0.1367,-0.1407,-0.1443,-0.1456,-0.1418,-0.1125,-0.0904,-0.0789,-0.0728,-0.074,-0.0671,-0.068,-0.0659,-0.0558,-0.0556,-0.0555,-0.126,-0.1284,-0.1304,-0.1354,-0.1401,-0.1445,-0.1456,-0.1369,-0.0865,-0.0494,-0.0406,-0.0437,-0.0317,-0.0359,-0.0229,-0.0265,-0.0225,0,0]}],[{"header":{"parameterUnit":"m.s-1","parameterCategory":2,"la1":30.2992,"la2":30.254,"lo1":-89.0895,"lo2":-89.0443,"dy":0.0025,"dx":0.0025,"nx":19,"ny":19,"refTime":"2026-03-27T09:00:00:Z","depth":"2","parameterNumber":2,"parameterNumberName":"U-component_of_CURRENTS"},"data":[0,0,0,-0.0784,-0.0784,-0.0771,-0.0771,-0.0711,-0.0711,0,0,0,0,0,0,0,0,0,0,0,-0.0779,-0.0779,-0.0784,-0.0784,-0.0771,-0.0771,-0.0711,-0.0711,0,0,0,0,0,0,0,0,0,0,0,-0.0779,-0.0779,-0.0779,-0.0785,-0.0771,-0.0771,-0.0711,-0.0729,0,0,0,0,0,0,0,0,0,0,-0.0746,-0.0745,-0.0779,-0.0779,-0.0785,-0.0772,-0.0771,-0.073,-0.0728,-0.0708,0,-0.0708,0,-0.0716,-0.0707,-0.0706,0,0,0,-0.0773,-0.0747,-0.0754,-0.0779,-0.0785,-0.0772,-0.0774,-0.0729,-0.0727,-0.0705,-0.0707,-0.0706,-0.0715,-0.0706,-0.0706,-0.0669,-0.0669,0,0,-0.0773,-0.0765,-0.0756,-0.0753,-0.0783,-0.0775,-0.0774,-0.0728,-0.0718,-0.0707,-0.0705,-0.0714,-0.0706,-0.0705,-0.0669,-0.0669,0,0,0,-0.0783,-0.0765,-0.0774,-0.0755,-0.076,-0.0774,-0.0773,-0.072,-0.0726,-0.0704,-0.0714,-0.0706,-0.0705,-0.0669,-0.0669,-0.0721,0,0,0,-0.0783,-0.0772,-0.0774,-0.0767,-0.0762,-0.0745,-0.0766,-0.0729,-0.0725,-0.0714,-0.0706,-0.0704,-0.0669,-0.0669,-0.0719,-0.0739,0,0,0,-0.078,-0.0772,-0.0773,-0.0767,-0.0769,-0.0746,-0.0749,-0.0728,-0.073,-0.0706,-0.0704,-0.0669,-0.0669,-0.0718,-0.0736,-0.0755,0,0,0,-0.0767,-0.0776,-0.0773,-0.0785,-0.077,-0.0783,-0.0749,-0.074,-0.0722,-0.0705,-0.0669,-0.0669,-0.0717,-0.0735,-0.0754,-0.0849,-0.0863,0,0,-0.0777,-0.0776,-0.0787,-0.0785,-0.0809,-0.0784,-0.0797,-0.0753,-0.0715,-0.0679,-0.0678,-0.072,-0.0736,-0.0755,-0.0853,-0.0868,0,0,0,-0.0791,-0.0794,-0.0802,-0.0811,-0.082,-0.0824,-0.0789,-0.0773,-0.0736,-0.0707,-0.0707,-0.0715,-0.0726,-0.0779,-0.0791,-0.067,-0.067,-0.067,-0.067,-0.0779,-0.0798,-0.0813,-0.0834,-0.0843,-0.0842,-0.0841,-0.0807,-0.0764,-0.0753,-0.0748,-0.0784,-0.0842,-0.0851,-0.0738,-0.0738,-0.0738,-0.0739,-0.0739,-0.079,-0.08,-0.082,-0.0834,-0.085,-0.0847,-0.0864,-0.0844,-0.083,-0.0787,-0.0795,-0.0819,-0.0867,-0.0743,-0.0742,-0.0741,-0.0741,-0.0741,-0.074,-0.0774,-0.0785,-0.0784,-0.0807,-0.0819,-0.0835,-0.0865,-0.0872,-0.0858,-0.0875,-0.0908,-0.0908,-0.082,-0.0866,-0.0866,-0.0867,-0.0867,-0.0867,-0.0867,-0.0754,-0.0767,-0.076,-0.0781,-0.0775,-0.08,-0.0852,-0.0879,-0.0946,-0.0967,-0.0967,-0.0827,-0.0823,-0.0826,-0.087,-0.0869,-0.0869,-0.0869,-0.0868,-0.0746,-0.074,-0.0735,-0.0726,-0.0737,-0.0766,-0.0833,-0.0952,-0.0999,-0.105,-0.1025,-0.102,-0.1011,-0.1002,-0.101,-0.1098,-0.1098,-0.1098,-0.1098,-0.073,-0.0734,-0.0709,-0.0696,-0.0706,-0.0753,-0.086,-0.1009,-0.1106,-0.1137,-0.1135,-0.1127,-0.1118,-0.1112,-0.11,-0.1108,-0.1221,-0.1221,-0.1221,-0.0723,-0.0714,-0.0684,-0.0672,-0.0676,-0.0738,-0.0866,-0.1031,-0.111,-0.1218,-0.1071,-0.1123,-0.1105,-0.1093,-0.1076,-0.1061,-0.107,0,0]},{"header":{"parameterUnit":"m.s-1","parameterCategory":2,"la1":30.2992,"la2":30.254,"lo1":-89.0895,"lo2":-89.0443,"dy":0.0025,"dx":0.0025,"nx":19,"ny":19,"refTime":"2026-03-27T09:00:00:Z","depth":"2","parameterNumber":3,"parameterNumberName":"V-component_of_CURRENTS"},"data":[0,0,0,0.0211,0.0212,0.0264,0.0264,0.0327,0.0327,0,0,0,0,0,0,0,0,0,0,0,0.0181,0.0181,0.0211,0.0212,0.0264,0.0264,0.0326,0.0327,0,0,0,0,0,0,0,0,0,0,0,0.0181,0.0181,0.0181,0.0212,0.0264,0.0264,0.0326,0.0288,0,0,0,0,0,0,0,0,0,0,0.0239,0.0205,0.0181,0.0181,0.0212,0.0264,0.0264,0.0287,0.0291,0.0302,0,0.03,0,0.032,0.0331,0.0331,0,0,0,0.0213,0.0201,0.0223,0.0181,0.0213,0.0264,0.0241,0.0289,0.0294,0.0307,0.0301,0.0304,0.0321,0.0331,0.0332,0.0395,0.0395,0,0,0.021,0.0186,0.022,0.0226,0.0215,0.0239,0.0242,0.0292,0.0287,0.0302,0.0306,0.0322,0.0332,0.0332,0.0395,0.0395,0,0,0,0.0201,0.0183,0.0205,0.0223,0.0235,0.0241,0.0244,0.0284,0.0293,0.0307,0.0323,0.0332,0.0333,0.0395,0.0395,0.0337,0,0,0,0.02,0.0179,0.0203,0.0188,0.0234,0.026,0.0235,0.0289,0.0296,0.0323,0.0332,0.0333,0.0394,0.0395,0.0338,0.0297,0,0,0,0.0181,0.0177,0.0181,0.0187,0.0212,0.026,0.0271,0.0291,0.0306,0.0331,0.0334,0.0394,0.0395,0.0338,0.03,0.0289,0,0,0,0.0158,0.0154,0.018,0.0182,0.0211,0.0252,0.0271,0.0293,0.0311,0.0332,0.0395,0.0395,0.0339,0.0301,0.0291,0.0366,0.0366,0,0,0.0144,0.0152,0.0155,0.018,0.0205,0.0245,0.0272,0.0296,0.0328,0.0377,0.0379,0.0337,0.03,0.0289,0.0401,0.0399,0,0,0,0.0146,0.0143,0.0157,0.0173,0.0215,0.024,0.0282,0.0304,0.0334,0.0342,0.0366,0.0345,0.0339,0.039,0.0389,0.0398,0.0398,0.0398,0.0398,0.0091,0.0119,0.0121,0.0157,0.0181,0.0238,0.026,0.03,0.033,0.0336,0.0319,0.0298,0.0353,0.0353,0.0353,0.0353,0.0352,0.0352,0.0352,0.0063,0.0061,0.0085,0.0091,0.0128,0.0148,0.0221,0.0244,0.0277,0.0303,0.0302,0.0353,0.0348,0.0348,0.0349,0.0349,0.035,0.035,0.035,0.0026,0.0027,0.0025,0.0026,0.0023,0.0072,0.0072,0.0137,0.0206,0.0208,0.028,0.0282,0.0244,0.0206,0.0205,0.0205,0.0205,0.0205,0.0205,-0.0014,-0.0011,-0.0038,-0.0041,-0.0065,-0.0075,-0.0023,0.0016,0.0134,0.022,0.0222,0.0249,0.0254,0.0238,0.0201,0.0202,0.0202,0.0203,0.0203,-0.0048,-0.0057,-0.0092,-0.0122,-0.0166,-0.0186,-0.0145,-0.0019,0.0048,0.0129,0.025,0.025,0.0276,0.028,0.0265,0.0238,0.0238,0.0238,0.0238,-0.0082,-0.0083,-0.014,-0.0187,-0.0231,-0.0234,-0.0194,-0.0002,0.0198,0.0337,0.0332,0.0387,0.0384,0.0419,0.0419,0.0409,0.0419,0.0419,0.0419,-0.0108,-0.0123,-0.0166,-0.0204,-0.0259,-0.0272,-0.0202,0.0014,0.0322,0.0424,0.0341,0.0255,0.0327,0.0325,0.0374,0.0376,0.0358,0,0]}],[{"header":{"parameterUnit":"m.s-1","parameterCategory":2,"la1":30.2992,"la2":30.254,"lo1":-89.0895,"lo2":-89.0443,"dy":0.0025,"dx":0.0025,"nx":19,"ny":19,"refTime":"2026-03-27T09:00:00:Z","depth":"4","parameterNumber":2,"parameterNumberName":"U-component_of_CURRENTS"},"data":[0,0,0,-0.0862,-0.0863,-0.0934,-0.0934,-0.0985,-0.0986,0,0,0,0,0,0,0,0,0,0,0,-0.0843,-0.0844,-0.0861,-0.0863,-0.0934,-0.0934,-0.0985,-0.0986,0,0,0,0,0,0,0,0,0,0,0,-0.0843,-0.0844,-0.0845,-0.0863,-0.0934,-0.0934,-0.0985,-0.0942,0,0,0,0,0,0,0,0,0,0,-0.0879,-0.0865,-0.0844,-0.0845,-0.0864,-0.0934,-0.0934,-0.0941,-0.0945,-0.0941,0,-0.0957,0,-0.0968,-0.0988,-0.0988,0,0,0,-0.0867,-0.0861,-0.088,-0.0845,-0.0864,-0.0934,-0.0903,-0.0944,-0.0948,-0.0946,-0.0958,-0.096,-0.0968,-0.0988,-0.0988,-0.1032,-0.1032,0,0,-0.0863,-0.0855,-0.0877,-0.0884,-0.0889,-0.0901,-0.0905,-0.0947,-0.0953,-0.0958,-0.0961,-0.0969,-0.0988,-0.0988,-0.1032,-0.1032,0,0,0,-0.0849,-0.0852,-0.0871,-0.0881,-0.0895,-0.0903,-0.0908,-0.0952,-0.0959,-0.0962,-0.097,-0.0988,-0.0989,-0.1032,-0.1032,-0.1049,0,0,0,-0.0847,-0.0844,-0.0869,-0.0865,-0.0894,-0.0929,-0.0912,-0.0956,-0.0961,-0.097,-0.0988,-0.0989,-0.1031,-0.1032,-0.1048,-0.1062,0,0,0,-0.0839,-0.0842,-0.0853,-0.0864,-0.0892,-0.0929,-0.0938,-0.0958,-0.0965,-0.0988,-0.0989,-0.1031,-0.1032,-0.1047,-0.1061,-0.1083,0,0,0,-0.0824,-0.0843,-0.0853,-0.0877,-0.0892,-0.0933,-0.0938,-0.0974,-0.0996,-0.0989,-0.1031,-0.1032,-0.1047,-0.1059,-0.1082,-0.0956,0,0,0,-0.0837,-0.0844,-0.0858,-0.0868,-0.0906,-0.0923,-0.0962,-0.0994,-0.1001,-0.1015,-0.1016,-0.1048,-0.106,-0.1083,-0.0991,0,0,0,0,-0.0854,-0.0865,-0.0878,-0.0904,-0.0933,-0.0968,-0.0995,-0.1007,-0.1038,-0.1016,-0.1055,-0.1063,-0.1076,-0.0999,-0.1035,-0.1035,-0.1035,-0.1035,-0.1034,-0.0851,-0.0871,-0.09,-0.0931,-0.0959,-0.1002,-0.103,-0.1052,-0.1051,-0.1069,-0.1081,-0.1117,-0.1036,-0.1083,-0.1083,-0.1083,-0.1083,-0.1083,-0.1083,-0.0862,-0.0874,-0.0914,-0.0949,-0.099,-0.1026,-0.1068,-0.108,-0.1116,-0.1104,-0.1116,-0.1028,-0.1085,-0.1084,-0.1084,-0.1084,-0.1084,-0.1084,-0.1084,-0.0843,-0.0854,-0.0889,-0.0943,-0.0995,-0.1041,-0.1078,-0.1114,-0.1138,-0.1156,-0.108,-0.1136,-0.113,-0.1166,-0.1166,-0.1166,-0.1166,-0.1166,-0.1166,-0.0806,-0.0843,-0.0869,-0.0932,-0.0959,-0.1009,-0.1087,-0.111,-0.1151,-0.1095,-0.1169,-0.1145,-0.1143,-0.1135,-0.1169,-0.1168,-0.1168,-0.1168,-0.1168,-0.0774,-0.0799,-0.0824,-0.0851,-0.0903,-0.0928,-0.1025,-0.1057,-0.1077,-0.1062,-0.106,-0.1064,-0.105,-0.105,-0.1038,-0.1045,-0.1043,-0.1042,0,-0.0746,-0.0763,-0.078,-0.079,-0.08,-0.0868,-0.0871,-0.0927,-0.0974,-0.0937,-0.1072,-0.1067,-0.1069,-0.1051,-0.1049,-0.1033,0,0,0,-0.0729,-0.0737,-0.0728,-0.0745,-0.0741,-0.078,-0.0865,-0.0856,-0.0962,-0.0961,-0.1004,-0.1014,-0.1116,-0.1177,-0.1166,-0.1163,-0.115,0,0]},{"header":{"parameterUnit":"m.s-1","parameterCategory":2,"la1":30.2992,"la2":30.254,"lo1":-89.0895,"lo2":-89.0443,"dy":0.0025,"dx":0.0025,"nx":19,"ny":19,"refTime":"2026-03-27T09:00:00:Z","depth":"4","parameterNumber":3,"parameterNumberName":"V-component_of_CURRENTS"},"data":[0,0,0,0.0282,0.0283,0.0325,0.0325,0.0355,0.0355,0,0,0,0,0,0,0,0,0,0,0,0.0272,0.0272,0.0282,0.0283,0.0325,0.0325,0.0355,0.0355,0,0,0,0,0,0,0,0,0,0,0,0.0272,0.0272,0.0272,0.0283,0.0325,0.0325,0.0355,0.0331,0,0,0,0,0,0,0,0,0,0,0.0294,0.0282,0.0272,0.0272,0.0283,0.0324,0.0325,0.033,0.0333,0.0328,0,0.0334,0,0.034,0.0356,0.0356,0,0,0,0.029,0.028,0.0293,0.0272,0.0284,0.0324,0.0308,0.0332,0.0334,0.0331,0.0335,0.0336,0.0341,0.0356,0.0356,0.0376,0.0376,0,0,0.0287,0.0278,0.0291,0.0294,0.0294,0.0306,0.0309,0.0334,0.0335,0.0335,0.0337,0.0341,0.0357,0.0357,0.0376,0.0376,0,0,0,0.0276,0.0277,0.0289,0.0293,0.0299,0.0307,0.031,0.0334,0.0338,0.0337,0.0342,0.0357,0.0357,0.0376,0.0376,0.0369,0,0,0,0.0275,0.027,0.0288,0.0283,0.0299,0.0319,0.031,0.0337,0.034,0.0341,0.0357,0.0357,0.0376,0.0376,0.0369,0.0364,0,0,0,0.027,0.0269,0.0274,0.0282,0.0297,0.0319,0.0325,0.0338,0.0342,0.0356,0.0357,0.0375,0.0376,0.0369,0.0364,0.0391,0,0,0,0.0259,0.0259,0.0274,0.0274,0.0296,0.0312,0.0325,0.034,0.0352,0.0357,0.0376,0.0376,0.0369,0.0364,0.0391,0.0337,0,0,0,0.0251,0.0258,0.0257,0.0271,0.0274,0.0307,0.0321,0.0343,0.0355,0.0367,0.0367,0.0369,0.0364,0.0391,0.0353,0,0,0,0,0.0249,0.0248,0.0251,0.0257,0.0276,0.03,0.0327,0.0345,0.0369,0.0362,0.0377,0.0374,0.0391,0.0359,0.0377,0.0377,0.0377,0.0377,0.0377,0.0222,0.0231,0.0229,0.0245,0.0259,0.0298,0.0324,0.0355,0.0363,0.0378,0.0374,0.0397,0.0361,0.0382,0.0382,0.0382,0.0382,0.0382,0.0382,0.02,0.0195,0.0212,0.0214,0.0244,0.0262,0.0317,0.034,0.0385,0.0381,0.0399,0.036,0.0381,0.0381,0.0381,0.0382,0.0382,0.0382,0.0382,0.0173,0.0173,0.018,0.0188,0.0204,0.0242,0.0271,0.0317,0.0373,0.0392,0.0378,0.0402,0.0398,0.0408,0.0408,0.0408,0.0408,0.0408,0.0408,0.0143,0.0151,0.0153,0.016,0.0164,0.018,0.0246,0.0287,0.0352,0.0367,0.0396,0.0406,0.0405,0.04,0.041,0.0409,0.0409,0.0409,0.0409,0.011,0.012,0.0123,0.0126,0.0129,0.0128,0.0187,0.0268,0.032,0.0359,0.0365,0.0367,0.037,0.037,0.0364,0.0363,0.0362,0.0362,0,0.0088,0.0093,0.0109,0.0111,0.0097,0.0105,0.0146,0.0206,0.0291,0.0278,0.0327,0.033,0.0332,0.033,0.033,0.032,0,0,0,0.0072,0.0085,0.0094,0.0106,0.0085,0.0112,0.0154,0.0183,0.0264,0.0311,0.0345,0.035,0.0368,0.0414,0.0423,0.0422,0.0415,0,0]}]]